EHI
0 0 0 0 0 0 0 0 0 0 0 0 0 0 0 0 0 0 0 0 0 0 0 0 0 0 0 0 0 0 0 0 0 0 0 0 0 0 0 0 0 1 0
0 0 0 0 0 0 0 0 0 0 0 0 0 0 0 0 0 0 0 0 0 0 0 0 0 0 0 0 0 0 0 0 0 0 0 0 0 0 0 0 0 1 1
0 0 0 0 0 0 0 0 0 0 0 0 0 0 0 0 0 0 0 0 0 0 0 0 0 0 0 0 0 0 0 0 0 0 0 0 0 0 0 0 0 0 0
0 0 0 0 0 0 0 0 0 0 0 0 0 0 0 0 0 0 0 0 0 0 0 0 0 0 0 0 0 0 0 0 0 0 0 0 0 0 0 0 0 0 0
0 0 0 0 0 0 0 0 0 0 0 0 0 0 0 0 0 0 0 0 0 0 0 0 0 0 0 0 0 0 0 0 0 0 0 0 0 0 0 0 0 0 0
0 0 0 0 0 0 0 0 0 0 0 0 0 0 0 0 0 0 0 0 0 0 0 0 0 0 0 0 0 0 0 0 0 0 0 0 0 0 0 0 0 0 0
0 0 0 0 0 0 0 0 0 0 0 0 0 0 0 0 0 0 0 0 0 0 0 0 0 0 0 0 0 0 0 0 0 0 0 0 0 0 0 0 0 0 0
0 0 0 0 0 0 0 0 0 0 0 0 0 0 0 0 0 0 0 0 0 0 0 0 0 0 0 0 0 0 0 0 0 0 0 0 0 0 0 0 0 0 0
0 0 0 0 0 0 0 0 0 0 0 0 0 0 0 0 0 0 0 0 0 0 0 0 0 0 0 0 0 0 0 0 0 0 0 0 0 0 0 0 0 0 0
0 0 0 0 0 0 0 0 0 0 0 0 0 0 0 0 0 0 0 0 0 0 0 0 0 0 0 0 0 0 0 0 0 0 0 0 0 0 0 0 0 0 1
0 0 0 0 0 0 0 0 0 0 0 0 0 0 0 0 0 0 0 0 0 0 0 0 0 0 0 0 0 0 0 0 0 0 0 0 0 0 0 0 0 0 1
0 0 0 0 0 0 0 0 0 0 0 0 0 0 0 0 0 0 0 0 0 0 0 0 0 0 0 0 0 0 0 0 0 0 0 0 0 0 0 0 0 0 1
0 0 0 0 0 0 0 0 0 0 0 0 0 0 0 0 0 0 0 0 0 0 0 0 0 0 0 0 0 0 0 0 0 0 0 0 0 0 0 0 0 0 0
0 0 0 0 0 0 0 0 0 0 0 0 0 0 0 0 0 0 0 0 0 0 0 0 0 0 0 0 0 0 0 0 0 0 0 0 0 0 0 0 0 0 0
0 0 0 0 0 0 0 0 0 0 0 0 0 0 0 0 0 0 0 0 0 0 0 0 0 0 0 0 0 0 0 0 0 0 0 0 0 0 0 0 0 0 0
0 0 0 0 0 0 0 0 0 0 0 0 0 0 0 0 0 0 0 0 0 0 0 0 0 0 0 0 0 0 0 0 0 0 0 0 0 0 0 0 0 0 0
0 0 0 0 0 0 0 0 0 0 0 0 0 0 0 0 0 0 0 0 0 0 0 0 0 0 0 0 0 0 0 0 0 0 0 0 0 0 0 0 0 0 0
0 0 0 0 0 0 0 0 0 0 0 0 0 0 0 0 0 0 0 0 0 0 0 0 0 0 0 0 0 0 0 0 0 0 0 0 0 0 0 0 0 0 0
0 0 0 0 0 0 0 0 0 0 0 0 0 0 0 0 0 0 0 0 0 0 0 0 0 0 0 0 0 0 0 0 0 0 0 0 0 0 0 0 0 0 0
0 0 0 0 0 0 0 0 0 0 0 0 0 0 0 0 0 0 0 0 0 0 0 0 0 0 0 0 0 0 0 0 0 0 0 0 0 0 0 0 0 0 0
0 0 0 0 0 0 0 0 0 0 0 0 0 0 0 0 0 0 0 0 0 0 0 0 0 0 0 0 0 0 0 0 0 0 0 0 0 0 0 0 0 0 0
0 0 0 0 0 0 0 0 0 0 0 0 0 0 0 0 0 0 0 0 0 0 0 0 0 0 0 0 0 0 0 0 0 0 0 0 0 0 0 0 0 0 0
0 0 0 0 0 0 0 0 0 0 0 0 0 0 0 0 0 0 0 0 0 0 0 0 0 0 0 0 0 0 0 0 0 0 0 0 0 0 0 0 0 0 0
0 0 0 0 0 0 0 0 0 0 0 0 0 0 0 0 0 0 0 0 0 0 0 0 0 0 0 0 0 0 0 0 0 0 0 0 0 0 0 0 0 0 0
0 0 0 0 0 0 0 0 0 0 0 0 0 0 0 0 0 0 0 0 0 0 0 0 0 0 0 0 0 0 0 0 0 0 0 0 0 0 0 0 0 0 0
0 0 0 0 0 0 0 0 0 0 0 0 0 0 0 0 0 0 0 0 0 0 0 0 0 0 0 0 0 0 0 0 0 0 0 0 0 0 0 0 0 0 0
Wind_Speed
10 11 10 10 11 10 11 12 13 15 15 15 14 15 16 16 15 14 11 20 23 24 24 23 23 23 23 23 23 23 23 23 22 22 24 27 27 27 27 27 26 25 24
10 11 11 11 11 11 11 12 15 14 13 13 15 16 17 16 15 15 14 15 21 22 21 21 21 21 21 22 22 22 23 23 23 22 23 26 27 28 28 28 27 26 25
12 12 11 11 11 12 14 13 15 13 13 14 16 16 15 16 16 16 16 13 13 17 19 18 18 18 20 21 21 22 22 22 23 22 22 25 27 28 28 29 28 27 26
13 12 11 11 12 12 12 12 12 13 13 14 14 14 14 14 17 17 15 14 12 11 12 14 15 17 18 20 21 21 22 21 22 22 22 24 27 28 29 29 29 28 28
13 13 11 11 13 12 12 12 12 13 14 15 14 14 14 14 15 16 16 14 12 11 10 10 14 16 17 18 20 21 22 22 22 22 22 22 25 28 29 29 29 29 29
14 13 11 13 13 12 12 12 15 15 14 14 15 15 15 16 15 14 14 11 10 10 10 9 10 11 15 17 18 20 21 22 22 22 22 22 24 28 29 29 30 30 30
13 13 11 12 12 12 14 16 15 16 14 13 14 15 15 16 14 11 8 8 10 9 9 10 10 9 9 14 17 18 20 21 22 23 22 21 23 27 29 30 29 30 30
13 11 13 12 13 13 15 15 15 13 13 12 13 15 13 13 7 8 9 10 10 7 9 11 11 12 11 9 11 17 19 20 21 22 22 21 21 24 29 30 30 30 31
13 13 14 14 14 14 13 16 16 17 14 14 12 10 10 10 13 10 12 9 8 9 10 10 12 12 12 11 10 13 16 18 21 21 22 21 19 22 27 30 30 31 30
13 13 14 15 15 13 15 16 15 15 16 13 12 11 11 12 11 10 9 10 13 12 12 10 11 12 12 10 11 15 17 18 20 21 21 20 19 19 25 29 30 30 30
12 13 14 14 14 13 15 16 16 15 13 13 12 11 12 12 13 12 14 12 11 10 11 11 10 10 11 11 9 12 15 17 19 20 19 18 18 18 20 27 30 31 30
10 13 15 14 14 13 15 15 15 16 13 14 12 11 11 11 11 11 12 13 13 11 12 11 10 9 9 10 11 13 15 17 18 18 18 17 16 16 16 21 27 30 31
11 14 15 15 14 14 15 15 14 13 13 14 12 11 10 11 11 11 12 13 14 12 14 11 8 8 8 8 8 11 15 17 17 17 17 16 15 14 13 15 21 29 31
11 15 16 15 16 16 15 14 12 12 11 12 12 13 10 11 10 11 11 11 12 12 12 12 8 8 7 7 10 15 13 16 17 17 17 16 15 13 11 11 13 21 27
11 14 15 15 15 15 15 15 11 12 12 11 11 11 10 9 9 10 10 10 10 12 12 12 10 9 8 8 12 12 12 15 17 18 18 16 14 13 10 9 10 13 19
13 14 15 15 15 15 15 14 13 13 13 11 9 10 10 8 8 8 8 8 9 10 12 11 11 12 12 10 14 13 13 18 19 19 18 16 15 12 10 8 8 12 14
13 13 14 14 14 15 14 13 13 14 13 13 12 12 12 11 9 8 8 8 8 9 12 12 12 12 15 14 12 11 11 12 11 16 17 16 15 11 9 8 9 11 15
13 13 13 14 14 14 14 13 13 13 13 13 13 13 13 12 13 11 9 10 9 10 11 14 13 12 14 13 13 12 11 10 10 13 16 16 14 11 9 9 9 11 17
13 13 13 14 13 13 13 12 11 11 11 12 13 13 13 14 14 12 13 11 10 10 10 11 13 11 10 10 11 11 11 10 10 11 14 15 14 11 10 9 9 10 16
12 13 14 14 13 12 12 10 8 9 10 11 12 12 13 14 15 15 12 12 12 12 11 10 10 10 9 9 8 6 7 7 8 8 10 10 11 11 10 10 10 10 15
12 12 13 14 14 12 11 10 5 7 9 11 12 12 13 17 20 16 12 13 12 10 10 9 9 9 8 8 6 5 7 6 7 6 6 8 8 7 7 8 9 10 13
12 12 12 14 14 11 20 20 9 7 9 10 12 12 14 15 19 20 18 18 16 13 11 9 8 9 10 9 8 7 7 5 4 2 4 6 6 6 6 5 6 8 11
11 12 12 13 14 16 22 22 15 10 10 10 11 12 12 14 19 13 13 17 16 16 14 11 10 10 11 10 10 9 8 6 5 4 4 4 5 7 6 5 8 8 10
10 11 12 13 13 15 22 23 19 11 9 9 10 12 14 15 16 17 12 12 13 10 12 10 9 9 10 10 9 9 9 9 9 6 5 3 4 5 5 5 9 10 10
11 11 11 12 13 15 20 23 20 10 7 10 10 11 14 15 21 23 15 14 14 11 12 16 15 13 13 13 10 6 6 5 4 2 1 2 1 2 4 4 6 10 10
11 11 11 12 13 14 18 22 21 8 7 9 9 10 14 19 22 22 15 14 15 13 12 12 11 11 9 9 10 6 5 5 4 2 3 3 1 1 3 2 3 5 6
Wind_Direction
328 326 320 320 317 318 317 317 313 314 311 309 306 305 303 301 297 293 291 293 294 295 295 293 292 290 288 287 287 285 285 280 275 261 241 229 220 211 204 199 196 194 193
325 322 318 317 315 317 316 311 309 309 307 307 304 303 301 298 292 292 290 291 289 289 289 290 290 290 290 289 287 286 283 281 274 268 250 233 224 216 208 202 198 196 195
326 323 317 316 316 316 313 309 308 306 306 305 303 302 299 296 293 290 289 286 285 282 281 284 289 292 292 291 291 289 285 284 277 270 260 240 227 219 213 206 200 197 196
330 324 318 317 317 315 312 310 308 309 307 306 304 302 299 294 290 288 286 280 276 277 277 280 291 293 294 293 291 291 291 287 283 273 265 249 232 221 215 210 204 199 197
332 326 319 316 319 315 312 309 309 309 306 305 303 301 297 293 290 285 280 275 271 269 272 284 292 292 292 291 291 292 294 292 288 280 271 258 239 224 217 212 207 203 200
331 326 318 320 319 313 312 312 310 306 303 303 302 300 296 291 280 274 272 271 269 267 272 292 295 291 289 291 293 292 290 291 293 287 276 266 248 228 218 213 209 206 202
328 324 320 318 316 312 311 308 307 305 304 304 303 303 300 286 272 268 273 281 276 275 282 292 292 295 292 290 291 291 290 290 291 292 283 270 257 235 220 213 210 207 205
324 320 318 315 313 309 307 307 307 303 301 302 305 307 308 304 275 320 301 282 278 291 296 293 293 290 290 291 287 290 291 289 289 291 289 277 264 244 225 215 210 207 206
319 317 315 314 311 310 306 306 305 301 300 300 294 294 298 304 328 296 289 285 297 303 294 291 289 288 289 285 285 283 289 293 291 289 289 282 270 252 231 218 211 208 206
318 317 316 315 312 310 307 305 302 299 296 294 293 285 277 284 289 298 298 302 298 290 290 291 290 287 284 282 277 281 287 291 291 291 288 285 273 260 239 222 213 209 206
320 320 322 320 318 314 310 307 303 298 293 290 289 288 283 280 271 272 285 292 293 291 290 290 286 283 283 279 277 277 289 294 293 293 293 293 281 267 253 230 216 211 207
322 326 327 325 323 319 316 313 306 300 294 289 285 282 280 278 278 278 284 292 294 296 293 288 282 279 279 280 276 284 292 295 295 296 299 298 293 279 271 247 223 212 207
324 328 329 327 325 323 319 316 311 305 299 293 285 280 277 273 273 273 276 283 289 292 290 283 277 279 280 278 282 292 293 292 293 295 298 299 300 290 280 270 238 217 207
322 323 325 324 326 327 326 325 318 314 303 295 287 281 276 272 270 269 271 279 287 291 290 291 292 286 285 290 288 295 286 284 287 292 294 294 296 295 286 281 261 226 209
320 322 323 326 328 329 330 330 328 328 319 306 295 288 281 276 273 270 268 268 277 290 296 302 300 299 299 290 286 283 281 281 284 285 285 284 286 290 285 284 263 230 210
322 323 325 328 329 331 331 330 330 336 334 330 322 311 300 293 288 285 280 278 274 279 287 293 298 297 298 291 285 280 275 278 274 273 272 272 272 277 281 276 260 214 197
323 325 326 327 329 330 330 329 334 335 334 335 336 333 330 323 318 314 308 300 295 290 289 293 296 298 298 293 287 277 270 265 262 259 260 261 262 263 272 270 254 210 189
323 324 325 326 327 328 326 325 330 332 332 332 332 331 330 329 328 326 321 313 308 301 295 297 299 299 298 297 289 279 267 257 252 250 249 252 252 251 257 263 252 213 189
322 325 325 324 324 324 322 317 325 327 330 329 328 329 328 326 327 328 326 322 318 311 302 295 297 299 299 297 292 278 264 252 249 244 240 242 241 239 242 254 253 220 192
323 324 321 320 320 319 317 305 308 321 327 329 330 328 326 323 324 325 327 328 324 316 307 300 300 304 303 305 292 285 274 251 244 238 230 227 225 224 227 240 246 224 197
321 320 320 319 319 320 316 311 290 319 329 332 333 330 325 326 327 329 332 331 328 321 313 310 307 309 315 322 317 308 292 279 248 234 228 219 210 207 211 224 235 219 196
319 319 316 315 317 318 320 331 336 330 334 336 335 332 327 328 328 330 331 334 332 325 323 318 310 312 316 320 319 315 309 288 243 211 241 223 202 199 200 209 214 207 192
316 315 313 314 315 317 322 327 333 331 332 337 335 332 331 330 333 325 334 336 328 326 329 324 311 312 313 318 318 316 314 306 293 318 280 224 198 200 191 201 198 202 191
314 310 311 315 317 317 322 324 327 323 325 333 332 331 333 333 330 344 342 334 327 329 328 321 312 311 311 312 312 305 299 295 279 261 257 241 189 193 181 185 188 192 187
309 308 313 317 318 318 319 320 326 319 324 328 333 335 336 337 340 350 347 338 333 337 335 330 328 324 324 324 330 321 311 295 272 246 270 282 200 175 166 177 180 181 177
309 314 316 318 317 315 317 320 329 326 327 331 338 338 339 345 349 352 351 343 340 342 337 332 331 331 331 329 337 331 314 303 298 306 2 335 338 143 135 143 167 168 167